Location: Unspecified
(0.0000°N, 0.0000°E)
Time: 07:14:35
(UTC+00:00)

Vanguard 1 - Pass Details

Date: 16 December 2017
Orbit: 649 x 3834 km, 34.2° (Epoch: 23 January)

Event Time Altitude Azimuth Distance (km) Brightness Sun altitude
Rises 04:34:24 0° 230° (SW) 6,148 13.9 -18.6°
Reaches altitude 10° 04:37:49 10° 229° (SW) 5,472 13.6 -17.8°
Maximum altitude 04:56:32 82° 141° (SE) 3,683 13.0 -13.5°
Drops below altitude 10° 05:20:22 10° 55° (NE) 6,700 14.8 -8.1°
Sets 05:25:06 0° 55° (NE) 7,511 15.0 -7.0°
